This demonstration page uses our WeatherBlox Daily Observations layout. Learn more.

Left ArrowRight Arrow

31.31129, -92.44514

Hourly Observations for December 23, 2015

Temp ( °F °C ) Dew Point ( °F °C ) Humidity (%) Winds ( mph kmh ) Pressure ( in mb ) Visibility ( mi km ) Precip ( " mm )
12:27 am 00:27 Partly Cloudy 66 18.9 64 17.8 93 93 S 9 15 29.65 1004 10 16 0.00 0.00
12:53 am 00:53 Mostly Cloudy 66 18.9 64 17.8 93 93 SSE 9 15 29.66 1004 10 16 0.00 0.00
1:11 am 01:11 Cloudy with Light Rain 66 18.9 64 17.8 93 93 S 13 20 29.65 1004 10 16 0.00 0.03
1:29 am 01:29 Cloudy 67 19.4 65 18.3 93 93 SSE 16 26 29.65 1004 10 16 0.00 0.03
1:42 am 01:42 Cloudy 67 19.4 65 18.3 93 93 SSE 12 19 29.65 1004 10 16 0.00 0.03
1:53 am 01:53 Cloudy with Light Rain 67 19.4 65 18.3 93 93 SSE 15 24 29.65 1004 10 16 0.00 0.03
2:50 am 02:50 Cloudy 66 19 64 18 94 94 SSE 14 22 29.62 1003 10 16 0.00 0.03
2:53 am 02:53 Cloudy 67 19.4 65 18.3 93 93 SSE 15 24 29.63 1004 10 16 0.00 0.03
3:22 am 03:22 Cloudy 67 19.4 65 18.3 93 93 SSE 9 15 29.62 1003 10 16 0.00 0.00
3:53 am 03:53 Cloudy 67 19.4 65 18.3 93 93 SE 9 15 29.61 1003 10 16 0.00 0.00
4:01 am 04:01 Cloudy 67 19.4 65 18.3 93 93 SSE 8 13 29.59 1002 10 16 0.00 0.00
4:13 am 04:13 Cloudy with Light Rain 67 19.4 65 18.3 93 93 SE 9 15 29.59 1002 10 16 0.00 0.03
4:53 am 04:53 Cloudy with Light Rain 66 18.9 65 18.3 96 96 SSE 10 17 29.60 1002 10 16 0.00 0.03
5:13 am 05:13 Cloudy 66 18.9 65 18.3 96 96 SSE 13 20 29.59 1002 10 16 0.00 0.03
5:40 am 05:40 Cloudy 67 19.4 65 18.3 93 93 SE 13 20 29.56 1001 10 16 0.01 0.25
5:53 am 05:53 Cloudy 67 19.4 66 18.9 97 97 SSE 14 22 29.58 1002 10 16 0.01 0.25
6:53 am 06:53 Cloudy 67 19.4 66 18.9 97 97 SSE 13 20 29.57 1001 10 16 0.00 0.00
7:53 am 07:53 Cloudy 69 20.6 68 20 96 96 SSE 7 11 29.57 1001 8 13 0.00 0.00
8:53 am 08:53 Cloudy 73 22.8 70 21.1 90 90 S 12 19 29.57 1002 8 13 0.00 0.00
9:53 am 09:53 Cloudy 76 24.4 71 21.7 85 85 S 17 28 29.58 1002 8 13 0.00 0.00
10:53 am 10:53 Cloudy 77 25 70 21.1 79 79 SSW 17 28 29.58 1002 8 13 0.00 0.00
11:05 am 11:05 Cloudy 77 25 70 21.1 79 79 SSW 16 26 29.56 1001 8 13 0.00 0.00
11:53 am 11:53 Cloudy with Light Rain 78 25.6 70 21.1 76 76 SSW 20 31 29.56 1001 8 13 0.00 0.03
12:41 pm 12:41 Cloudy 79 26.1 70 21.1 74 74 SSW 16 26 29.53 1000 7 11 0.00 0.03
12:53 pm 12:53 Cloudy 78 25.6 70 21.1 76 76 SSW 17 28 29.52 1000 7 11 0.00 0.03
1:18 pm 13:18 Mostly Cloudy 80 26.7 69 20.6 69 69 SSW 24 39 29.50 999 8 13 0.00 0.00
1:53 pm 13:53 Partly Cloudy 79 26.1 68 20 69 69 SSW 17 28 29.52 1000 8 13 0.00 0.00
2:53 pm 14:53 Partly Cloudy 79 26.1 68 20 69 69 SSW 20 31 29.52 1000 7 11 0.00 0.00
3:53 pm 15:53 Mostly Sunny 78 25.6 68 20 71 71 SSW 9 15 29.53 1000 7 11 0.00 0.00
4:53 pm 16:53 Sunny 76 24.4 68 20 77 77 S 13 20 29.56 1001 7 11 0.00 0.00
5:53 pm 17:53 Clear 73 22.8 67 19.4 81 81 S 9 15 29.59 1002 7 11 0.00 0.00
6:53 pm 18:53 Clear 72 22.2 66 18.9 82 82 S 10 17 29.63 1004 7 11 0.00 0.00
7:53 pm 19:53 Clear 70 21.1 65 18.3 84 84 SSW 8 13 29.67 1005 7 11 0.00 0.00
8:53 pm 20:53 Clear with Mist and Fog 68 20 65 18.3 90 90 S 7 11 29.70 1006 6 10 0.00 0.00
9:53 pm 21:53 Clear with Mist and Fog 67 19.4 64 17.8 91 91 SSW 7 11 29.72 1006 6 10 0.00 0.00
10:53 pm 22:53 Clear with Mist and Fog 64 17.8 62 16.7 93 93 E 3 6 29.75 1007 5 8 0.00 0.00
11:53 pm 23:53 Clear with Mist and Fog 60 15.6 60 15.6 100 100 Calm 29.76 1008 3 4 0.00 0.00

Powered by AerisWeather